Lapse_Rate
6.2 6.1 6.4 6.6 6.8 7.1 7.3 7.4 7.7 7.9 8.2 8.9 8.9 9.4 9.6 9.6 9.7 9.7 9.7 10.0 9.7 9.7 9.7 9.5 8.9 8.9 8.6 8.7 8.6 8.4 8.2 8.2 8.1 7.9 7.8 7.7 7.5 7.2 7.1 7.1 7.1 7.1 6.6 6.5
6.6 6.8 7.0 7.1 7.3 7.3 7.5 7.6 7.6 7.9 8.4 8.8 8.7 8.6 9.2 9.7 9.7 9.7 9.6 9.7 9.7 9.7 9.6 9.6 9.3 9.0 9.1 8.8 9.0 8.5 8.2 8.2 8.3 8.0 7.5 7.7 7.5 7.4 7.1 7.1 7.0 6.9 6.9 6.5
7.2 7.4 7.8 8.1 7.9 7.9 7.8 7.8 8.0 8.0 8.0 8.2 8.7 8.3 9.2 9.6 9.7 9.7 9.6 9.6 9.7 9.3 9.1 9.7 9.3 9.0 9.3 9.1 9.1 8.7 8.4 8.3 8.2 8.1 7.7 7.6 7.5 7.3 7.1 7.1 7.1 6.9 6.6 6.6
7.5 7.7 7.8 7.9 7.8 7.8 7.8 8.8 8.3 8.1 8.2 8.1 9.4 9.4 9.4 9.7 9.7 9.7 9.7 9.6 9.6 9.7 9.2 9.4 9.3 9.3 9.2 9.2 9.0 9.0 8.5 8.3 8.2 7.8 7.9 7.6 7.7 7.3 6.9 6.9 6.9 6.9 6.7 6.6
7.7 7.8 8.0 8.1 7.9 7.9 7.9 8.1 8.2 8.2 8.4 8.5 8.5 9.7 9.7 9.4 9.5 9.2 9.4 9.7 9.8 9.7 9.7 9.3 9.0 9.2 9.0 9.1 8.9 9.2 8.6 8.4 8.3 7.8 7.9 7.6 7.7 7.4 6.8 6.7 6.8 6.7 6.7 6.0
7.3 7.5 7.7 7.9 7.6 7.8 7.9 8.0 8.2 8.7 9.2 9.7 9.5 9.0 9.4 8.9 9.3 8.7 8.4 9.3 9.2 9.7 9.7 9.7 9.3 9.3 9.0 8.8 8.7 9.1 8.7 8.6 8.5 8.0 7.8 7.7 7.7 7.5 7.2 6.8 6.6 6.6 6.3 6.3
8.2 8.9 9.6 9.1 8.3 8.3 8.6 9.3 9.6 9.7 9.7 9.7 9.5 9.5 9.5 9.4 9.0 8.7 8.5 8.7 9.3 9.5 9.6 9.7 9.4 9.2 9.2 8.5 8.6 9.0 8.9 8.8 8.5 8.1 7.8 7.7 7.4 7.3 7.3 6.9 6.7 6.6 6.3 6.5
8.3 9.5 9.5 9.6 8.7 9.1 8.7 9.3 9.6 9.3 9.6 9.8 9.6 9.6 9.5 9.3 9.1 8.9 9.3 8.7 9.3 9.3 9.3 9.6 9.5 9.1 8.8 8.7 8.6 9.2 9.1 9.1 8.8 8.2 7.8 7.6 7.3 7.2 7.3 7.0 6.6 6.4 6.3 6.6
7.7 8.1 8.3 8.7 9.2 9.6 9.4 9.7 9.7 9.7 9.7 9.7 9.6 9.1 9.2 8.9 8.8 9.0 8.5 8.1 9.0 9.4 9.2 8.6 7.4 8.4 8.6 8.7 8.8 9.1 9.2 9.3 9.0 8.4 7.9 7.7 7.5 7.4 7.4 6.9 6.8 6.7 7.0 7.1
7.4 7.5 7.9 8.3 8.7 9.7 9.7 9.7 9.7 9.7 9.5 9.4 9.6 8.6 9.5 8.8 8.9 8.9 8.9 8.9 8.7 8.0 8.6 8.6 9.0 7.1 7.8 8.3 8.5 8.3 8.6 9.1 9.1 8.7 8.0 7.8 7.7 7.5 7.3 6.9 6.7 6.7 6.7 7.2
7.5 7.7 7.8 8.2 8.6 9.6 9.5 9.4 9.4 8.9 8.6 8.9 9.5 9.2 7.9 8.1 7.8 8.1 8.2 7.8 8.2 7.7 7.5 7.2 8.9 8.8 8.5 7.7 8.0 8.3 8.6 8.9 9.0 8.6 8.1 7.7 7.6 7.5 7.2 7.2 7.2 6.9 7.0 7.0
7.3 7.3 7.5 7.7 8.0 9.1 9.6 8.9 8.5 8.5 7.9 8.5 8.2 8.3 7.7 8.6 7.3 7.5 7.3 7.1 6.1 6.4 6.6 7.9 9.3 9.0 8.9 8.6 7.7 7.2 7.8 8.7 8.8 8.4 8.0 7.6 7.6 7.4 7.2 7.2 7.3 7.1 7.2 6.9
6.7 7.1 7.1 7.7 8.8 9.0 8.7 8.8 8.4 8.5 8.2 8.4 7.8 8.3 8.3 8.5 8.1 8.0 7.7 7.3 6.8 7.2 7.0 8.4 8.7 8.9 8.7 8.4 7.4 6.9 6.9 7.3 7.6 8.2 7.4 7.4 7.4 7.4 7.4 7.2 7.0 7.0 7.5 7.3
6.7 6.9 7.0 7.5 7.8 8.5 8.6 9.0 9.2 8.9 8.7 8.7 8.6 8.8 8.6 8.0 8.3 7.2 7.7 7.4 7.6 7.7 7.6 8.3 8.5 8.0 7.2 7.3 7.4 6.7 6.2 5.8 6.2 6.2 7.4 7.6 7.3 7.5 7.4 7.1 6.9 7.0 7.3 7.5
6.9 7.1 7.3 7.3 7.7 7.9 8.1 8.3 8.8 9.5 9.1 9.3 8.7 8.8 8.2 7.9 7.6 6.3 7.4 6.8 6.4 7.1 7.7 8.1 7.8 7.8 6.5 6.5 6.8 6.4 6.1 6.4 6.5 6.2 6.7 7.1 6.9 7.0 7.2 7.2 7.2 7.3 7.7 8.0
6.9 7.0 7.1 7.0 7.4 7.9 8.2 8.7 9.2 9.4 9.5 9.6 9.1 7.8 6.5 6.8 7.0 6.6 7.7 6.2 6.9 7.5 7.6 7.7 7.7 7.3 6.9 6.0 6.4 6.3 6.3 6.6 6.8 6.3 6.3 6.3 6.3 6.4 4.6 6.3 7.0 7.0 7.8 8.0
7.1 7.1 7.2 7.1 7.5 7.8 7.7 8.6 9.4 8.9 8.7 8.4 8.2 7.4 6.8 6.8 7.0 6.8 6.6 6.6 6.5 6.9 7.7 7.8 7.6 7.3 7.0 5.5 5.5 6.7 6.2 6.4 6.3 6.1 5.3 6.3 6.2 5.8 4.8 5.8 6.7 6.2 6.9 7.0
7.5 7.4 7.5 7.3 7.5 7.8 8.5 8.9 8.7 8.1 7.9 6.8 6.6 7.4 8.1 7.1 6.8 6.6 6.5 6.5 6.2 6.4 6.3 7.0 6.9 7.1 7.1 6.9 6.2 6.6 6.9 6.9 7.2 6.9 6.6 6.7 4.7 4.8 4.6 5.2 6.2 6.2 6.2 6.6
8.5 8.0 8.3 8.2 9.1 8.8 9.2 8.0 7.7 7.5 7.2 6.8 7.2 6.7 6.6 6.2 6.5 6.3 6.4 6.6 6.6 6.7 6.8 7.1 7.1 6.6 6.6 6.5 7.0 6.5 7.2 6.4 7.2 6.9 6.8 6.2 6.1 6.1 6.1 5.8 6.3 6.4 6.0 6.1
8.2 7.8 6.2 7.3 6.8 8.2 7.5 6.6 6.9 6.9 7.7 6.4 6.9 7.1 6.6 6.3 6.8 6.1 6.8 6.4 6.5 7.2 7.1 7.4 7.7 7.2 6.9 6.7 6.9 6.9 6.5 6.5 6.5 6.2 6.0 6.2 6.3 6.5 6.6 6.2 6.4 6.2 5.9 6.0
7.8 7.3 6.4 6.9 6.9 7.5 7.0 7.0 7.2 7.3 7.1 6.8 7.0 6.7 6.2 6.3 6.3 6.1 5.9 6.4 6.1 6.7 7.0 7.2 7.4 7.4 7.1 6.8 6.5 6.5 6.4 6.2 6.0 6.2 5.8 5.4 5.5 5.2 5.8 5.8 6.1 6.2 6.2 6.4
7.4 6.9 7.2 7.3 7.3 7.3 6.4 7.1 6.5 6.3 6.5 6.4 6.9 6.7 6.9 6.2 6.4 5.9 5.7 6.2 6.4 6.4 6.3 6.8 6.9 6.9 6.3 6.4 6.6 6.4 6.2 6.2 6.0 5.8 5.7 5.5 5.8 6.1 6.0 5.8 5.8 5.7 5.9 6.0
7.3 6.8 6.8 7.1 7.0 6.8 6.6 6.4 6.5 6.5 6.5 6.2 6.9 6.6 7.1 6.8 6.4 5.6 5.9 6.1 6.1 6.2 5.9 5.9 6.2 6.0 5.9 6.0 6.2 5.9 5.8 5.9 5.8 5.9 6.1 6.0 5.5 5.1 5.1 5.0 4.7 4.6 5.2 5.5
6.9 7.0 6.9 7.0 7.1 6.7 6.4 6.6 6.4 6.6 6.1 6.6 6.6 6.7 6.6 6.6 6.4 6.7 6.4 6.1 5.8 5.8 5.8 5.4 5.7 5.9 5.9 5.9 5.9 5.8 5.7 5.4 5.5 5.6 5.4 5.3 5.0 4.7 4.5 4.2 4.1 3.7 4.2 4.9
7.9 7.2 7.0 6.9 6.8 6.5 6.4 6.4 6.2 6.1 6.0 6.6 6.9 6.8 6.4 6.4 6.3 6.2 6.1 6.0 5.9 5.6 5.5 5.5 5.7 5.7 5.7 5.8 5.9 5.7 5.6 5.6 5.6 5.6 5.5 5.3 5.5 5.2 5.0 5.0 4.6 4.7 4.9 5.0
7.4 7.3 7.3 7.0 6.7 6.6 6.5 6.2 6.1 6.0 6.0 6.2 6.6 6.4 6.2 5.9 5.7 5.7 5.6 5.5 5.4 5.4 5.4 5.2 5.0 5.0 5.2 5.2 5.2 5.3 5.5 5.5 5.5 5.4 5.6 5.9 5.9 5.9 5.6 5.5 5.4 5.5 5.1 5.1
Wind_Speed
14 12 14 18 20 22 23 25 26 23 22 23 24 24 19 17 15 17 16 13 14 15 13 23 25 23 22 20 20 19 17 16 13 11 12 10 11 10 9 8 7 14 14 13
13 16 21 21 17 18 20 23 24 25 22 21 22 24 24 22 20 18 20 17 15 16 17 13 23 24 24 22 22 20 19 16 15 11 11 8 10 9 9 8 7 14 14 14
15 17 16 16 13 17 19 17 20 21 20 21 22 25 22 24 22 20 23 20 15 17 21 15 24 25 24 24 24 22 20 19 17 16 11 8 8 7 9 9 7 9 12 12
10 14 10 11 15 16 20 18 18 18 18 18 19 18 16 19 20 22 23 24 23 19 19 17 25 24 25 24 22 23 21 20 17 17 14 15 11 10 9 8 8 9 11 12
15 17 14 14 14 14 18 17 17 18 19 20 22 14 14 16 15 15 24 26 17 18 19 18 25 26 26 23 23 21 21 20 20 19 16 13 13 9 8 10 11 10 9 9
17 16 16 15 8 13 13 15 15 18 17 14 17 3 9 12 14 15 18 19 29 18 18 20 26 23 21 19 21 20 22 20 20 19 17 17 16 11 10 9 8 6 7 7
16 14 12 2 10 13 14 14 12 13 12 13 12 7 11 11 16 8 11 22 27 20 15 16 25 24 22 22 21 20 21 21 21 21 20 17 16 14 9 8 6 7 5 5
11 4 10 5 9 10 14 13 8 17 14 18 17 9 10 12 4 10 13 21 20 17 11 3 26 22 22 22 20 22 21 22 22 21 21 15 16 11 10 7 6 6 6 5
10 15 21 15 21 7 16 15 18 13 17 15 10 10 17 11 5 2 14 20 20 29 14 13 3 25 23 23 23 23 22 21 21 21 18 19 15 14 14 9 9 8 7 8
12 17 18 20 19 15 19 14 15 12 14 17 8 9 5 10 14 12 15 15 16 26 28 29 8 2 18 22 22 22 22 23 22 21 19 17 17 17 11 11 11 10 8 5
15 15 15 14 15 15 10 11 10 7 8 9 15 6 12 20 21 24 23 24 23 18 36 43 10 16 7 15 20 20 20 21 21 21 19 18 18 15 14 11 12 11 10 8
13 12 13 18 21 21 11 5 8 3 6 9 10 8 14 15 19 13 16 19 11 19 33 14 15 16 20 13 16 20 20 20 20 19 18 18 15 15 16 12 13 10 10 9
7 7 12 13 16 8 9 18 2 7 7 9 9 14 5 8 11 11 10 13 19 18 9 12 16 18 18 18 14 10 15 17 16 13 14 14 14 15 17 16 15 13 12 11
5 13 16 13 18 21 19 19 15 11 11 13 15 14 9 15 19 11 13 13 3 4 12 12 16 17 15 14 15 16 17 7 11 11 14 16 17 17 15 14 13 13 13 12
10 14 15 18 21 21 22 23 25 20 22 19 20 4 7 3 6 8 16 25 3 5 5 8 10 13 17 13 9 13 15 16 15 4 11 11 12 10 18 16 14 11 12 11
13 14 15 20 21 22 24 24 21 22 23 21 12 15 7 3 5 6 10 16 3 6 3 2 7 8 8 14 13 10 13 14 12 13 9 12 12 12 24 10 9 11 11 10
15 12 13 18 20 20 18 21 18 13 18 10 11 8 12 8 5 6 3 5 7 6 4 4 4 8 9 6 3 8 5 9 7 6 6 3 11 15 23 14 8 3 8 8
17 15 10 14 17 21 20 8 9 8 21 17 9 9 10 6 7 8 12 7 7 10 7 8 6 4 6 8 6 6 7 8 8 8 8 5 7 6 5 22 14 14 14 10
11 7 11 11 15 21 22 14 11 2 2 11 7 8 10 10 5 10 18 14 11 10 11 8 6 7 8 6 12 6 9 7 11 12 11 5 3 6 14 18 16 13 9 11
2 6 4 6 11 22 8 15 14 7 2 8 6 7 8 12 6 3 10 17 8 8 7 7 10 8 9 8 9 12 11 12 9 10 9 8 4 3 6 8 6 7 9 9
4 6 7 5 9 8 10 21 25 14 3 8 10 11 7 7 6 4 5 6 6 7 7 6 10 6 9 8 12 12 11 9 5 7 6 6 6 3 2 2 5 7 8 8
5 3 6 5 4 4 11 11 11 9 10 8 8 4 6 8 11 3 5 5 5 9 9 8 7 10 8 9 10 10 9 8 7 5 4 6 5 4 6 8 5 4 5 3
2 1 3 5 6 3 5 9 8 7 9 5 6 5 3 2 6 1 6 7 7 9 5 9 8 10 8 8 8 9 8 6 6 6 7 7 5 5 5 5 5 4 6 6
4 8 4 6 5 7 4 8 5 5 8 7 3 5 8 8 8 8 6 3 5 7 6 7 10 8 7 6 7 7 6 4 5 5 4 4 5 6 5 3 4 5 6 6
4 1 4 11 7 11 3 4 7 7 1 4 4 5 7 8 8 7 7 7 6 8 10 7 7 6 5 5 6 6 8 8 8 5 5 4 6 7 5 4 5 4 3 2
5 4 7 6 10 9 5 4 7 7 4 5 8 6 6 7 9 9 7 5 6 7 6 5 6 7 8 9 5 5 5 5 5 7 4 5 6 6 5 4 1 6 2 4
Wind_Direction
221 233 242 245 254 261 268 273 275 276 285 286 292 296 294 291 256 247 255 251 222 245 245 177 174 171 170 168 170 179 179 177 174 179 187 190 202 197 208 220 199 164 181 189
240 247 245 252 260 270 281 281 282 283 278 281 278 277 282 280 268 262 263 265 260 265 254 209 170 168 172 170 172 179 183 182 182 184 186 200 191 197 202 215 184 168 178 180
256 272 290 284 276 277 274 274 289 289 289 276 280 278 274 271 266 262 270 266 254 246 260 234 169 171 170 173 176 178 182 187 184 186 183 196 194 205 194 206 189 179 186 177
298 289 299 305 285 277 279 282 282 294 299 291 297 291 272 269 262 250 242 241 239 237 231 233 171 171 174 178 175 176 181 187 185 186 188 196 197 197 193 196 199 193 183 186
278 302 300 288 296 308 299 304 302 295 286 284 281 273 283 328 306 322 335 316 222 248 229 229 172 176 180 172 178 176 181 188 186 191 193 193 200 193 203 193 208 190 186 200
262 259 255 252 278 293 301 295 286 268 259 260 269 311 304 298 288 331 308 314 290 246 248 214 170 173 174 173 173 178 182 189 189 195 200 196 195 202 195 208 193 170 168 188
324 264 247 322 304 279 252 262 272 285 292 293 347 279 299 235 267 298 285 291 303 278 279 221 162 166 172 179 176 180 182 189 192 195 202 197 197 208 205 191 179 154 177 188
310 349 26 21 280 281 298 306 290 291 304 310 317 308 310 332 164 240 264 301 284 308 360 77 155 161 172 181 179 180 186 189 192 195 199 210 196 199 219 184 166 178 197 177
317 303 329 307 292 259 279 268 277 288 281 286 331 340 303 330 291 194 290 301 333 352 358 14 305 169 174 179 183 184 187 188 191 196 196 203 192 198 201 206 173 188 202 169
310 298 299 300 287 264 259 285 290 285 299 289 268 256 266 5 2 319 333 353 354 349 331 321 323 279 177 180 186 187 183 188 188 194 197 197 206 196 189 190 177 198 190 180
300 291 308 308 280 305 322 273 308 337 327 307 312 21 39 15 5 58 42 19 16 43 315 290 347 342 321 185 185 188 185 182 189 192 194 198 199 192 199 187 177 194 157 171
314 318 300 297 294 293 325 42 359 299 285 306 302 293 34 32 17 352 98 72 288 230 241 355 28 19 353 318 197 183 184 177 190 192 195 197 191 191 191 194 179 169 158 172
350 318 312 300 283 64 337 304 208 239 260 285 300 274 41 63 20 343 302 179 210 254 319 22 23 31 13 8 7 173 178 183 188 188 197 192 191 190 191 194 178 171 170 181
307 276 268 275 295 313 307 295 270 270 271 279 243 252 27 16 346 346 324 285 295 39 44 31 35 29 5 13 26 30 31 33 167 174 190 201 198 196 192 185 174 171 174 185
302 288 281 288 295 302 297 290 285 267 246 248 267 317 115 169 272 295 13 329 351 93 57 43 43 26 4 347 31 37 35 25 15 312 196 220 225 230 195 175 164 177 182 189
291 290 298 290 285 283 281 287 278 280 281 291 359 71 231 266 229 256 192 234 27 75 334 82 69 70 36 356 358 42 59 42 49 37 51 44 10 12 332 160 166 168 188 200
274 277 288 284 290 291 283 277 285 327 327 350 329 12 99 281 257 283 350 342 64 79 89 77 48 37 35 64 312 30 26 108 99 173 238 357 354 17 342 340 309 166 222 207
255 247 267 273 277 271 276 336 56 78 36 18 310 10 45 1 342 338 2 11 47 46 51 63 71 78 58 57 351 74 31 32 55 28 87 62 142 81 267 287 304 267 229 206
248 294 271 274 273 279 280 13 347 95 162 198 319 9 10 352 321 15 350 349 39 47 41 34 82 72 94 64 60 40 48 60 48 41 38 27 110 197 234 245 257 261 244 217
357 78 27 11 318 288 42 346 4 279 306 58 35 5 4 3 62 275 19 316 28 57 52 42 44 49 69 82 82 60 52 48 52 54 47 50 55 46 351 358 339 298 253 252
331 342 313 205 234 271 330 349 327 251 22 2 14 22 24 35 9 175 184 268 50 47 42 83 70 56 68 52 63 63 61 59 42 72 60 33 41 72 51 24 27 26 37 16
0 307 320 315 266 296 38 21 329 320 327 342 348 340 8 19 18 219 192 137 85 79 69 74 65 59 60 81 74 68 55 34 23 50 98 103 69 27 15 19 12 8 301 68
288 26 296 286 298 259 113 226 263 343 294 335 314 344 52 121 99 38 67 46 41 48 57 78 89 83 71 66 64 71 85 66 46 35 16 1 35 72 63 39 25 14 22 71
181 234 264 319 353 332 313 357 26 350 338 343 5 54 70 91 125 113 104 92 60 58 51 77 84 79 63 65 81 80 56 69 49 28 6 358 11 13 9 15 45 45 36 13
356 276 300 275 283 316 1 336 344 314 27 68 110 101 102 93 99 120 104 99 91 77 62 54 63 88 97 76 53 46 27 7 4 3 346 358 5 13 10 53 19 16 52 50
210 347 263 246 302 302 350 52 26 335 155 125 118 103 90 102 100 89 70 39 30 43 46 56 44 41 24 13 36 49 33 5 11 330 22 6 337 344 339 345 307 175 131 159